Location: Powder Track
(41.8531°N, 72.3584°W)
Time: 00:03:42
(UTC+00:00)

Vanguard 1 Rocket - Pass Details

Date: 14 August 2021
Orbit: 650 x 4226 km, 34.3° (Epoch: 19 September)

Event Time Altitude Azimuth Distance (km) Brightness Sun altitude
Rises 17:42:06 0° 283° (WNW) 7,763 12.2 60.4°
Reaches altitude 10° 17:48:53 10° 276° (W) 6,203 11.9 59.8°
Maximum altitude 18:02:41 30° 225° (SW) 3,388 11.5 58.5°
Drops below altitude 10° 18:11:01 10° 168° (SSE) 3,666 11.0 57.6°
Sets 18:13:51 0° 156° (SSE) 4,269 11.0 57.3°
